Regional Weather Roundup
Issued by NWS Spokane, WA

Home | Current Version | Previous Version | Text Only | Print | Product List | Glossary On
Versions: 1 2 3 4 5 6 7 8 9 10 11 12 13 14 15 16 17 18 19 20 21 22 23 24 25 26 27 28 29 30 31 32 33 34 35 36 37 38 39 40 41 42 43 44 45 46 47 48 49 50
000
NZUS01 KOTX 020110
RWROTX
EASTERN WASHINGTON/NORTHERN IDAHO ROUNDUP
NATIONAL WEATHER SERVICE, SPOKANE WA
600 PM PDT WED JUL 01 2015

Note: "fair" indicated few or no clouds below 12,000 feet with no
significant weather and/or obstructions to visibility.

...NORTHEAST WASHINGTON AND NORTHERN IDAHO PANHANDLE...

CITY           SKY/WX    TMP DP  RH WIND       PRES   REMARKS
SPOKANE INTL   MOSUNNY   93  41  16 NW8       29.95F
SPOKANE DOWNTO SUNNY     94  43  17 W8G17     29.93F HX  90
COEUR D ALENE  SUNNY     91  46  21 NW5       29.93F
DEER PARK      SUNNY     93  43  17 SW5       29.95F
SANDPOINT      SUNNY     90  43  19 S6        29.95F
BONNERS FERRY  FAIR      90  52  27 SW5       29.95F

...SOUTHEAST WASHINGTON AND SOUTHERN IDAHO PANHANDLE...

CITY           SKY/WX    TMP DP  RH WIND       PRES   REMARKS
WALLA WALLA    SUNNY    100  45  15 W10       29.87F HX  96
PULLMAN/MOSCOW SUNNY     92  41  17 W9        29.99F
LEWISTON       SUNNY    100  45  15 NW8       29.87F HX  96
LOWELL           N/A     88  50  27 CALM      29.88F

...COLUMBIA BASIN...

CITY           SKY/WX    TMP DP  RH WIND       PRES   REMARKS
EPHRATA        SUNNY     99  42  14 NE8       29.89F HX  94
MOSES LAKE     SUNNY     99  38  12 N8G20     29.90F HX  94
TRI CITIES     SUNNY    100  48  17 N10       29.84F HX  96
HERMISTON      SUNNY    101  50  18 NE9       29.84F HX  98
PENDLETON      SUNNY     99  45  15 N14       29.89S HX  95

...EAST SLOPES CASCADES...

CITY           SKY/WX    TMP DP  RH WIND       PRES   REMARKS
THE DALLES     SUNNY    104  38  10 NW6       29.78F HX  98
YAKIMA         SUNNY    100  50  18 E8        29.87F HX  97
ELLENSBURG     SUNNY    101  40  12 NE6       29.91F HX  96
WENATCHEE      SUNNY     98  48  18 E6        29.87F HX  94
OMAK           SUNNY     95  43  16 N14       29.93F HX  91

...SOUTHERN BRITISH COLUMBIA...

CITY           SKY/WX    TMP DP  RH WIND       PRES   REMARKS
PENTICTON      SUNNY     90  50  25 N16       29.98F
CRANBROOK      MOSUNNY   86  45  23 NW5       30.02F

...WESTERN MONTANA...

CITY           SKY/WX    TMP DP  RH WIND       PRES   REMARKS
MISSOULA       SUNNY     93  39  15 NW13      29.97F

...NEIGHBORING CITIES...

CITY           SKY/WX    TMP DP  RH WIND       PRES   REMARKS
SEATTLE        SUNNY     90  55  30 N9        29.96F
CALGARY        PTSUNNY   73  54  49 N14       30.15R



USA.gov is the U.S. government's official web portal to all federal, state and local government web resources and services.